Back to catalog

STARLINK-6352

AliveCommunicationsVLEO
NORAD 56782·PAYLOAD·🇺🇸 United States

Launched May 31, 2023 from Vandenberg Space Force Base

Loading…

Next Passes (next 24 hours)

TLE

FreshSource: CelesTrak SupGP

Epoch: Sep 14, 2026, 14:48 UTC

1 56782C 23078R   26257.61715278  .00744020  00000+0  50924-1 0  2571
2 56782  70.0006 208.1495 0002933 272.9601  22.9460 15.05634678    15

Track STARLINK-6352 in real time with AllMySat

Download on the App Store